Date,NEE,OCN,FF,BB
20210101,-0.000387721,-3.83753e-05,-0.000456449,-0.00178011
20210102,0.000781458,-0.00992993,0.0397636,-0.00412749
20210103,0.00319583,-0.0144014,0.0962662,-0.00384159
20210104,0.0193123,-0.0152096,0.126607,-0.00353753
20210105,0.0763050,-0.0153817,0.138219,-0.00159301
20210106,0.0863442,-0.0210359,0.130943,0.00148708
20210107,0.0738573,-0.0286583,0.122149,0.00631020
20210108,0.0629084,-0.0314193,0.134141,0.0111834
20210109,0.0563979,-0.0384473,0.160101,0.0139133
20210110,0.0662933,-0.0463116,0.193414,0.0173343
20210111,0.0881976,-0.0563279,0.212171,0.0192657
20210112,0.131901,-0.0648610,0.232926,0.0195926
20210113,0.152978,-0.0709469,0.262289,0.0195683
20210114,0.131895,-0.0819714,0.285396,0.0207898
20210115,0.106960,-0.0878486,0.257810,0.0247343
20210116,0.0912643,-0.0831092,0.221524,0.0267397
20210117,0.0772531,-0.0838846,0.207515,0.0273780
20210118,0.122830,-0.0920162,0.262574,0.0287347
20210119,0.150956,-0.100656,0.291893,0.0295225
20210120,0.131577,-0.110096,0.307622,0.0283143
20210121,0.171423,-0.124795,0.343281,0.0287564
20210122,0.182745,-0.145916,0.366127,0.0306588
20210123,0.185223,-0.155959,0.387494,0.0312902
20210124,0.201021,-0.159781,0.408929,0.0325635
20210125,0.182222,-0.177111,0.378372,0.0342188
20210126,0.156266,-0.186286,0.373462,0.0364374
20210127,0.133821,-0.197869,0.374810,0.0362343
20210128,0.141281,-0.195553,0.377670,0.0387521
20210129,0.160181,-0.193818,0.410927,0.0422441
20210130,0.169466,-0.204661,0.446646,0.0456160
20210131,0.206195,-0.214133,0.462487,0.0477927
20210201,0.248066,-0.209792,0.454680,0.0511825
20210202,0.245409,-0.209164,0.453072,0.0552681
20210203,0.208889,-0.216590,0.463193,0.0562772
20210204,0.180190,-0.235419,0.493716,0.0569411
20210205,0.169271,-0.261116,0.534524,0.0559684
20210206,0.198171,-0.272651,0.578335,0.0584527
20210207,0.210904,-0.275883,0.554981,0.0612826
20210208,0.195285,-0.277069,0.543916,0.0639254
20210209,0.199915,-0.279608,0.579549,0.0660566
20210210,0.206307,-0.282838,0.611458,0.0671974
20210211,0.201313,-0.287065,0.600258,0.0681673
20210212,0.192686,-0.290481,0.593253,0.0705860
20210213,0.215489,-0.292050,0.613443,0.0725364
20210214,0.244753,-0.295542,0.621303,0.0748266
20210215,0.252336,-0.305200,0.624534,0.0745572
20210216,0.302664,-0.321680,0.629017,0.0721115
20210217,0.367631,-0.341972,0.661460,0.0679251
20210218,0.429485,-0.358693,0.709402,0.0647058
20210219,0.515294,-0.371057,0.777672,0.0649578
20210220,0.541129,-0.376520,0.843239,0.0695172
20210221,0.557758,-0.373836,0.862347,0.0713959
20210222,0.548285,-0.373200,0.834598,0.0715142
20210223,0.520230,-0.369349,0.817932,0.0724066
20210224,0.481076,-0.362760,0.830358,0.0743682
20210225,0.446601,-0.358009,0.841934,0.0779434
20210226,0.397103,-0.361138,0.861503,0.0815074
20210227,0.343951,-0.365393,0.836687,0.0826938
20210228,0.342832,-0.364214,0.846095,0.0827322
20210301,0.346437,-0.368031,0.840150,0.0859296
20210302,0.344477,-0.368901,0.877084,0.0887495
20210303,0.373700,-0.367384,0.928281,0.0912753
20210304,0.358330,-0.358670,0.967080,0.0932062
20210305,0.316336,-0.359761,0.925187,0.0957224
20210306,0.294582,-0.364813,0.896897,0.0996768
20210307,0.277704,-0.370311,0.937355,0.100314
20210308,0.264320,-0.373871,0.964909,0.102029
20210309,0.261701,-0.383899,0.980447,0.103620
20210310,0.282358,-0.388369,0.993923,0.105054
20210311,0.273761,-0.385591,0.991298,0.104736
20210312,0.264658,-0.384766,0.995827,0.103908
20210313,0.263428,-0.383305,1.03258,0.102816
20210314,0.245060,-0.383339,1.06517,0.101625
20210315,0.230094,-0.389481,1.03204,0.102515
20210316,0.236656,-0.401040,1.02779,0.104526
20210317,0.217672,-0.413147,1.03989,0.105848
20210318,0.195104,-0.428102,1.03465,0.109646
20210319,0.189604,-0.432201,1.01687,0.111238
20210320,0.178729,-0.431728,1.02677,0.109852
20210321,0.168037,-0.426465,1.05739,0.108522
20210322,0.205641,-0.425247,1.11187,0.107456
20210323,0.222109,-0.431512,1.15441,0.109875
20210324,0.209589,-0.438616,1.16424,0.113604
20210325,0.192405,-0.442391,1.18031,0.114725
20210326,0.198462,-0.440759,1.16267,0.117160
20210327,0.213665,-0.428845,1.15258,0.119436
20210328,0.190434,-0.425947,1.14721,0.121913
20210329,0.174244,-0.428887,1.15144,0.124519
20210330,0.152223,-0.429433,1.15572,0.124614
20210331,0.131932,-0.429897,1.14030,0.126200
20210401,0.140356,-0.428747,1.14125,0.134092
20210402,0.125500,-0.433502,1.14671,0.138367
20210403,0.114649,-0.444433,1.16160,0.139678
20210404,0.0898999,-0.451701,1.20256,0.143126
20210405,0.0736097,-0.456064,1.23964,0.144511
20210406,0.0516122,-0.466093,1.24521,0.147030
20210407,0.0388940,-0.468796,1.24890,0.151617
20210408,0.0154987,-0.471221,1.24798,0.156822
20210409,-0.00763025,-0.477175,1.25204,0.157978
20210410,0.00809895,-0.486243,1.25093,0.160219
20210411,0.0230731,-0.493331,1.23948,0.163433
20210412,0.0193066,-0.494079,1.21877,0.168071
20210413,-0.00255350,-0.487966,1.20424,0.172350
20210414,-0.00307102,-0.485860,1.21697,0.172794
20210415,-0.00505551,-0.483991,1.22449,0.172849
20210416,-0.00681184,-0.488884,1.22908,0.172364
20210417,-0.0430316,-0.496513,1.24274,0.175735
20210418,-0.0604287,-0.499475,1.26893,0.176790
20210419,-0.0860486,-0.503795,1.29558,0.176619
20210420,-0.0919614,-0.509304,1.31398,0.181429
20210421,-0.102489,-0.516318,1.33383,0.189997
20210422,-0.0978633,-0.526504,1.35303,0.194977
20210423,-0.109181,-0.532910,1.36476,0.196552
20210424,-0.122056,-0.537883,1.36904,0.199644
20210425,-0.143159,-0.544916,1.38285,0.199721
20210426,-0.192652,-0.544746,1.37821,0.198444
20210427,-0.180545,-0.542645,1.38623,0.198812
20210428,-0.175921,-0.550404,1.39912,0.198387
20210429,-0.188105,-0.563326,1.40774,0.198095
20210430,-0.213643,-0.568372,1.40426,0.199016
20210501,-0.200599,-0.568589,1.41313,0.201403
20210502,-0.208839,-0.568484,1.42927,0.204519
20210503,-0.253207,-0.564201,1.43774,0.208067
20210504,-0.278050,-0.565901,1.43645,0.208289
20210505,-0.274522,-0.573780,1.45880,0.207737
20210506,-0.314904,-0.577456,1.47017,0.210818
20210507,-0.360296,-0.577713,1.48291,0.214723
20210508,-0.377120,-0.578812,1.49402,0.218675
20210509,-0.429927,-0.583342,1.48788,0.220493
20210510,-0.421520,-0.589640,1.46944,0.222400
20210511,-0.443677,-0.602748,1.48075,0.225446
20210512,-0.496749,-0.612511,1.47798,0.227903
20210513,-0.523635,-0.614940,1.49633,0.227318
20210514,-0.555524,-0.613146,1.49888,0.226421
20210515,-0.577941,-0.613689,1.48878,0.229998
20210516,-0.607666,-0.612498,1.49869,0.231728
20210517,-0.643088,-0.617242,1.53674,0.233095
20210518,-0.711303,-0.621672,1.55337,0.234567
20210519,-0.743382,-0.625978,1.56882,0.236708
20210520,-0.786024,-0.634251,1.59082,0.239210
20210521,-0.848661,-0.638726,1.60524,0.240092
20210522,-0.925296,-0.644182,1.60493,0.239427
20210523,-0.980040,-0.654614,1.61396,0.238814
20210524,-1.04156,-0.656619,1.63244,0.238380
20210525,-1.09759,-0.660917,1.62090,0.241699
20210526,-1.11556,-0.663579,1.61453,0.244797
20210527,-1.14417,-0.662816,1.63141,0.248338
20210528,-1.17970,-0.663690,1.64369,0.251443
20210529,-1.24608,-0.664656,1.65449,0.251851
20210530,-1.27792,-0.672544,1.68760,0.252943
20210531,-1.38000,-0.674100,1.71088,0.252976
20210601,-1.43772,-0.671948,1.72727,0.255144
20210602,-1.48572,-0.668597,1.73299,0.257055
20210603,-1.57346,-0.670198,1.73622,0.256774
20210604,-1.65069,-0.674878,1.75485,0.258704
20210605,-1.73973,-0.681109,1.77709,0.259983
20210606,-1.79817,-0.693957,1.78249,0.257744
20210607,-1.82330,-0.711253,1.78446,0.255373
20210608,-1.85225,-0.726768,1.77731,0.256507
20210609,-1.91273,-0.725909,1.77637,0.259769
20210610,-1.97819,-0.722405,1.79200,0.262938
20210611,-2.04848,-0.722592,1.80386,0.266703
20210612,-2.13191,-0.720715,1.81559,0.270467
20210613,-2.19122,-0.720752,1.81235,0.274177
20210614,-2.28446,-0.721417,1.81420,0.276873
20210615,-2.38595,-0.727648,1.82281,0.280988
20210616,-2.46664,-0.733499,1.83574,0.282833
20210617,-2.52433,-0.738903,1.84974,0.282645
20210618,-2.60158,-0.741676,1.87243,0.282255
20210619,-2.67861,-0.748576,1.89019,0.285374
20210620,-2.69800,-0.754687,1.90139,0.286147
20210621,-2.72263,-0.759156,1.90448,0.282718
20210622,-2.73766,-0.770662,1.90806,0.282820
20210623,-2.83002,-0.775279,1.92468,0.285847
20210624,-2.91456,-0.773280,1.93733,0.290002
20210625,-2.91402,-0.771540,1.94285,0.289562
20210626,-2.92340,-0.773804,1.94764,0.288873
20210627,-2.98609,-0.781308,1.94946,0.291919
20210628,-3.03550,-0.782544,1.94850,0.296930
20210629,-3.11845,-0.784611,1.94441,0.304136
20210630,-3.17246,-0.782919,1.92920,0.308581
20210701,-3.21163,-0.776780,1.91789,0.313171
20210702,-3.26643,-0.775755,1.92674,0.315811
20210703,-3.28697,-0.776505,1.93699,0.324334
20210704,-3.31336,-0.783355,1.95967,0.328637
20210705,-3.37172,-0.793118,1.99537,0.328207
20210706,-3.43776,-0.797251,2.02150,0.330126
20210707,-3.50244,-0.797201,2.03693,0.337941
20210708,-3.55665,-0.795795,2.04596,0.351513
20210709,-3.59903,-0.792188,2.03940,0.358494
20210710,-3.61563,-0.794218,2.03909,0.365857
20210711,-3.63549,-0.805399,2.04484,0.368268
20210712,-3.69003,-0.818321,2.04530,0.374554
20210713,-3.76738,-0.826943,2.03578,0.382610
20210714,-3.84252,-0.831106,2.02913,0.389230
20210715,-3.89357,-0.826605,2.03582,0.389723
20210716,-3.90181,-0.825932,2.05221,0.387190
20210717,-3.92783,-0.828700,2.06423,0.391965
20210718,-4.00317,-0.830784,2.07652,0.393517
20210719,-4.07151,-0.824941,2.08887,0.398115
20210720,-4.12382,-0.823284,2.11516,0.411338
20210721,-4.18759,-0.827232,2.13390,0.417280
20210722,-4.25298,-0.829976,2.14184,0.420190
20210723,-4.31032,-0.840849,2.14950,0.421038
20210724,-4.35782,-0.842830,2.15698,0.425056
20210725,-4.40253,-0.837668,2.16452,0.425495
20210726,-4.41657,-0.832531,2.16563,0.431082
20210727,-4.44560,-0.830299,2.16469,0.435806
20210728,-4.44341,-0.824516,2.16302,0.442548
20210729,-4.48781,-0.820520,2.17442,0.450637
20210730,-4.48016,-0.820998,2.19620,0.464031
20210731,-4.53599,-0.824405,2.20428,0.470624
20210801,-4.59493,-0.825240,2.20301,0.476805
20210802,-4.62797,-0.825247,2.21201,0.484201
20210803,-4.66414,-0.827189,2.23496,0.489243
20210804,-4.70416,-0.826705,2.25890,0.493826
20210805,-4.75674,-0.823649,2.28768,0.501530
20210806,-4.80518,-0.822932,2.30195,0.505410
20210807,-4.88177,-0.826217,2.31906,0.510030
20210808,-4.97132,-0.828081,2.33902,0.516649
20210809,-5.05346,-0.829525,2.36074,0.523406
20210810,-5.10760,-0.828479,2.37165,0.527143
20210811,-5.12683,-0.823201,2.37357,0.533611
20210812,-5.14299,-0.816717,2.38872,0.536296
20210813,-5.17081,-0.815800,2.41460,0.531342
20210814,-5.19041,-0.811874,2.44959,0.528732
20210815,-5.22156,-0.809580,2.48193,0.524078
20210816,-5.27182,-0.816751,2.49810,0.520974
20210817,-5.32000,-0.820189,2.51102,0.518502
20210818,-5.36087,-0.819253,2.53172,0.521639
20210819,-5.36592,-0.819897,2.54457,0.526927
20210820,-5.33705,-0.812438,2.56333,0.529358
20210821,-5.32448,-0.806858,2.57842,0.533523
20210822,-5.37275,-0.811324,2.59986,0.541610
20210823,-5.41011,-0.817740,2.60279,0.544343
20210824,-5.44491,-0.817423,2.60954,0.539750
20210825,-5.47525,-0.825345,2.64530,0.542855
20210826,-5.49219,-0.829737,2.67321,0.549102
20210827,-5.50853,-0.830622,2.67399,0.555772
20210828,-5.51238,-0.839697,2.68831,0.557080
20210829,-5.47772,-0.841870,2.69747,0.560256
20210830,-5.47707,-0.837918,2.71228,0.566090
20210831,-5.44604,-0.838419,2.72055,0.572044
20210901,-5.46070,-0.841222,2.73682,0.576229
20210902,-5.46219,-0.845355,2.74648,0.576460
20210903,-5.45755,-0.849322,2.76008,0.575053
20210904,-5.46470,-0.845044,2.77012,0.575619
20210905,-5.47122,-0.845460,2.78821,0.582394
20210906,-5.45860,-0.842455,2.80613,0.585863
20210907,-5.46557,-0.842037,2.83763,0.589371
20210908,-5.45975,-0.840268,2.86647,0.594537
20210909,-5.45635,-0.839099,2.87473,0.594787
20210910,-5.43450,-0.837101,2.88299,0.593564
20210911,-5.41677,-0.838416,2.90164,0.592294
20210912,-5.38854,-0.837599,2.90543,0.596793
20210913,-5.35563,-0.841319,2.91494,0.603824
20210914,-5.32697,-0.846917,2.93640,0.611216
20210915,-5.31323,-0.851202,2.94617,0.618006
20210916,-5.31950,-0.854130,2.96311,0.625754
20210917,-5.33077,-0.853387,3.00337,0.632867
20210918,-5.30567,-0.850551,3.03505,0.637878
20210919,-5.26211,-0.845917,3.05646,0.638440
20210920,-5.23461,-0.847439,3.06613,0.639176
20210921,-5.25418,-0.854084,3.09322,0.643583
20210922,-5.28476,-0.856550,3.13030,0.649178
20210923,-5.27454,-0.862822,3.15814,0.655078
20210924,-5.21862,-0.864185,3.17996,0.652009
20210925,-5.14307,-0.865653,3.21088,0.654101
20210926,-5.07680,-0.867808,3.23529,0.661959
20210927,-5.02679,-0.872089,3.24153,0.665198
20210928,-4.97528,-0.879135,3.25608,0.668024
20210929,-4.94520,-0.886103,3.27278,0.669543
20210930,-4.96261,-0.887865,3.30854,0.673272
20211001,-4.93394,-0.889123,3.34164,0.672608
20211002,-4.89857,-0.890219,3.37147,0.674161
20211003,-4.88101,-0.892624,3.37663,0.675644
20211004,-4.82191,-0.891375,3.37617,0.675064
20211005,-4.77683,-0.887241,3.40000,0.675701
20211006,-4.74891,-0.887934,3.43057,0.678280
20211007,-4.70854,-0.891561,3.47557,0.679698
20211008,-4.66471,-0.897023,3.52846,0.683382
20211009,-4.64793,-0.898883,3.53903,0.687048
20211010,-4.66000,-0.902433,3.52987,0.687592
20211011,-4.64856,-0.913172,3.55803,0.688074
20211012,-4.60485,-0.920704,3.58812,0.686557
20211013,-4.56282,-0.924536,3.61079,0.688391
20211014,-4.54433,-0.933991,3.63712,0.692483
20211015,-4.54653,-0.941553,3.65878,0.694192
20211016,-4.53205,-0.945488,3.65431,0.694339
20211017,-4.47922,-0.942314,3.69009,0.694359
20211018,-4.42878,-0.938440,3.74497,0.693821
20211019,-4.41116,-0.946144,3.78515,0.693163
20211020,-4.38229,-0.953023,3.79492,0.694636
20211021,-4.40097,-0.955233,3.81336,0.700557
20211022,-4.39171,-0.958526,3.84737,0.705539
20211023,-4.34314,-0.963062,3.87760,0.711755
20211024,-4.30565,-0.969400,3.90916,0.711689
20211025,-4.26999,-0.974529,3.95014,0.712912
20211026,-4.18352,-0.983000,3.97214,0.715553
20211027,-4.11756,-0.998075,3.99436,0.718167
20211028,-4.09512,-1.00474,4.03852,0.718734
20211029,-4.08608,-1.00585,4.06737,0.716796
20211030,-4.02570,-1.00455,4.09098,0.714592
20211031,-3.96757,-1.00647,4.11314,0.715848
20211101,-3.93828,-1.01041,4.12616,0.721976
20211102,-3.93744,-1.01021,4.14012,0.726451
20211103,-3.87746,-1.01334,4.17559,0.729490
20211104,-3.82383,-1.02152,4.21900,0.730929
20211105,-3.84578,-1.03668,4.22788,0.731120
20211106,-3.87676,-1.05166,4.17715,0.732024
20211107,-3.87278,-1.05958,4.15063,0.736611
20211108,-3.79723,-1.05883,4.19851,0.742676
20211109,-3.79036,-1.05782,4.24645,0.745906
20211110,-3.79799,-1.06368,4.28803,0.746191
20211111,-3.76900,-1.07435,4.30058,0.746839
20211112,-3.70847,-1.08055,4.30380,0.747344
20211113,-3.64478,-1.08753,4.32900,0.749035
20211114,-3.56278,-1.08892,4.38756,0.751783
20211115,-3.48121,-1.09000,4.43627,0.754775
20211116,-3.46340,-1.09557,4.48492,0.757044
20211117,-3.43752,-1.10208,4.50911,0.759357
20211118,-3.45138,-1.10468,4.52518,0.763275
20211119,-3.45092,-1.10805,4.52248,0.765361
20211120,-3.40992,-1.10988,4.55633,0.766312
20211121,-3.40018,-1.10937,4.53428,0.765920
20211122,-3.39381,-1.10732,4.51793,0.768571
20211123,-3.39592,-1.11079,4.57734,0.771703
20211124,-3.36632,-1.11998,4.63507,0.774738
20211125,-3.33998,-1.13390,4.66939,0.774831
20211126,-3.33946,-1.14221,4.69689,0.774612
20211127,-3.33983,-1.15106,4.73273,0.774596
20211128,-3.30552,-1.16275,4.75282,0.774962
20211129,-3.24945,-1.17133,4.75190,0.776315
20211130,-3.22496,-1.18416,4.75339,0.777215
20211201,-3.21572,-1.19169,4.77901,0.780307
20211202,-3.20219,-1.19580,4.78782,0.781183
20211203,-3.15951,-1.20095,4.81408,0.780765
20211204,-3.12794,-1.21694,4.88039,0.780243
20211205,-3.08969,-1.22389,4.92670,0.780201
20211206,-3.07096,-1.23237,4.94552,0.780050
20211207,-3.03368,-1.24307,4.99837,0.781561
20211208,-2.98105,-1.25155,5.08466,0.782620
20211209,-2.91705,-1.26233,5.13095,0.784538
20211210,-2.88211,-1.27381,5.16564,0.787799
20211211,-2.90565,-1.27658,5.15285,0.791696
20211212,-2.92811,-1.27710,5.13221,0.795714
20211213,-2.85647,-1.27530,5.20571,0.798939
20211214,-2.78126,-1.27718,5.27623,0.802142
20211215,-2.77993,-1.28171,5.29589,0.803315
20211216,-2.84608,-1.29501,5.24236,0.802561
20211217,-2.86652,-1.30417,5.18047,0.804435
20211218,-2.81469,-1.30707,5.19754,0.805257
20211219,-2.78885,-1.31138,5.23380,0.805112
20211220,-2.79380,-1.30899,5.27620,0.805149
20211221,-2.79635,-1.31012,5.29914,0.811416
20211222,-2.74477,-1.31275,5.32893,0.819554
20211223,-2.76164,-1.31613,5.32747,0.824469
20211224,-2.81441,-1.32599,5.28475,0.824618
20211225,-2.83425,-1.33230,5.27269,0.822374
20211226,-2.79190,-1.34122,5.31474,0.822489
20211227,-2.80630,-1.35444,5.35144,0.823584
20211228,-2.79889,-1.36660,5.38028,0.825609
20211229,-2.76540,-1.37189,5.39040,0.829012
20211230,-2.72337,-1.37216,5.43036,0.833349
20211231,-2.69663,-1.37496,5.46152,0.834954
